Weather History for Grand Rapids, MI

Change the Weather History Date:

Saturday, March 16, 2013

  Actual Average Record
Temperature  
Mean Temperature 31 °F 36 °F  
Max Temperature 35 °F 44 °F 79 °F (2012)
Min Temperature 26 °F 27 °F 3 °F (1900)
Degree Days  
Heating Degree Days 34 30  
Month to date heating degree days 537 515  
Since 1 July heating degree days 5022 5292  
Cooling Degree Days 0 0  
Month to date cooling degree days 0 0  
Year to date cooling degree days 0 0  
Moisture  
Dew Point 24 °F    
Average Humidity 74    
Maximum Humidity 92    
Minimum Humidity 56    
Precipitation  
Precipitation 0.11 in 0.07 in 1.50 in (1942)
Month to date precipitation 0.62 1.15  
Year to date precipitation 7.68 5.03  
Snow  
Snow 1.20 in 0.30 in 10.00 in (1895)
Month to date snowfall 2.7 5.6  
Since 1 July snowfall 60.3 70.4  
Snow Depth 2.00 in    
Sea Level Pressure  
Sea Level Pressure 29.88 in    
Wind  
Wind Speed 9 mph (NNE)    
Max Wind Speed 20 mph    
Max Gust Speed 26 mph    
Visibility 6 miles    
Events Snow    
T = Trace of Precipitation, MM = Missing Value Source: NWS Daily Summary

Daily Weather History Graph

Daily Weather History Graph

Search for Another Location

Airport:

Trip Planner

Search our weather history database for the weather conditions in past years. The results will help you decide how hot, cold, wet, or windy it might be!

Date:

Astronomy

Mar. 16, 2013 Rise Set
Actual Time 7:51 AM EDT 7:49 PM EDT
Civil Twilight 7:23 AM EDT 8:18 PM EDT
Nautical Twilight 6:50 AM EDT 8:51 PM EDT
Astronomical Twilight 6:17 AM EDT 9:24 PM EDT
Moon 10:13 AM EDT (3/16) 12:09 AM EDT (3/16)
Length of Visible Light 12h 54m
Length of Day
11h 58m
Waxing Crescent, 23% of the Moon is Illuminated
Mar 16
Waxing Crescent
Mar 19
First Quarter
Mar 27
Full
Apr 3
Last Quarter
Apr 10
New

Hourly Weather History & Observations

Time (EDT) Temp. Windchill Dew Point Humidity Pressure Visibility Wind Dir Wind Speed Gust Speed Precip Events Conditions
12:17 AM 32.0 °F 22.5 °F 30.2 °F 93% 29.84 in 3.0 mi NE 12.7 mph - 0.01 in Snow Light Snow
12:25 AM 32.0 °F 22.1 °F 28.4 °F 87% 29.84 in 2.5 mi ENE 13.8 mph - 0.01 in Snow Light Snow
12:32 AM 32.0 °F 22.1 °F 28.4 °F 87% 29.83 in 1.8 mi NE 13.8 mph - 0.02 in Snow Light Snow
12:36 AM 30.2 °F 19.8 °F 28.4 °F 93% 29.84 in 2.0 mi NE 13.8 mph - 0.02 in Snow Light Snow
12:51 AM 30.2 °F 20.8 °F 28.4 °F 93% 29.83 in 1.8 mi ENE 11.5 mph - 0.03 in Snow Light Snow
12:53 AM 30.9 °F 20.7 °F 28.0 °F 89% 29.86 in 1.8 mi ENE 13.8 mph - 0.03 in Snow Light Snow
1:53 AM 30.0 °F 20.0 °F 27.0 °F 88% 29.83 in 2.5 mi ENE 12.7 mph - 0.03 in Snow Light Snow
2:16 AM 30.2 °F 22.6 °F 26.6 °F 86% 29.82 in 1.5 mi NE 8.1 mph - 0.00 in Snow Light Snow
2:23 AM 30.2 °F 21.9 °F 28.4 °F 93% 29.81 in 1.0 mi NE 9.2 mph - 0.01 in Snow Light Snow
2:29 AM 30.2 °F 20.2 °F 26.6 °F 86% 29.80 in 0.8 mi NE 12.7 mph - 0.02 in Snow Light Snow
2:42 AM 30.2 °F 21.3 °F 26.6 °F 86% 29.79 in 1.0 mi NE 10.4 mph - 0.03 in Snow Light Snow
2:53 AM 28.9 °F 19.2 °F 27.0 °F 92% 29.81 in 1.0 mi NE 11.5 mph - 0.04 in Snow Light Snow
3:12 AM 28.4 °F 19.1 °F 26.6 °F 93% 29.79 in 1.8 mi NE 10.4 mph - 0.01 in Snow Light Snow
3:22 AM 30.2 °F 20.2 °F 26.6 °F 86% 29.79 in 2.5 mi NE 12.7 mph - 0.01 in Snow Light Snow
3:28 AM 30.2 °F 21.3 °F 26.6 °F 86% 29.78 in 3.0 mi NE 10.4 mph - 0.01 in Snow Light Snow
3:53 AM 30.0 °F 21.7 °F 27.0 °F 88% 29.81 in 4.0 mi NE 9.2 mph - 0.01 in Snow Light Snow
4:00 AM 30.2 °F 21.3 °F 26.6 °F 86% 29.78 in 5.0 mi NE 10.4 mph - 0.00 in Snow Light Snow
4:08 AM 30.2 °F 20.8 °F 26.6 °F 86% 29.77 in 5.0 mi ENE 11.5 mph - 0.00 in Snow Light Snow
4:53 AM 30.0 °F 20.0 °F 27.0 °F 88% 29.78 in 5.0 mi ENE 12.7 mph - 0.02 in Snow Light Snow
5:53 AM 30.0 °F 19.5 °F 26.1 °F 85% 29.78 in 5.0 mi ENE 13.8 mph - 0.01 in Snow Light Snow
6:16 AM 30.2 °F 20.2 °F 26.6 °F 86% 29.75 in 8.0 mi ENE 12.7 mph - N/A Snow Light Snow
6:25 AM 30.2 °F 21.3 °F 26.6 °F 86% 29.76 in 8.0 mi ENE 10.4 mph - N/A Snow Light Snow
6:53 AM 28.9 °F 19.8 °F 26.1 °F 89% 29.78 in 9.0 mi ENE 10.4 mph - 0.00 in Snow Light Snow
7:53 AM 28.0 °F 16.1 °F 23.0 °F 81% 29.81 in 10.0 mi ENE 16.1 mph - 0.00 in   Overcast
8:53 AM 26.1 °F 13.6 °F 21.0 °F 81% 29.84 in 10.0 mi NE 16.1 mph 23.0 mph N/A   Overcast
9:53 AM 26.1 °F 15.6 °F 21.0 °F 81% 29.87 in 10.0 mi NE 11.5 mph - N/A   Overcast
10:53 AM 26.1 °F 15.6 °F 21.9 °F 84% 29.88 in 7.0 mi NE 11.5 mph - N/A   Overcast
11:53 AM 27.0 °F 18.7 °F 23.0 °F 85% 29.90 in 8.0 mi NE 8.1 mph - N/A   Overcast
12:53 PM 28.9 °F 21.9 °F 23.0 °F 78% 29.94 in 10.0 mi North 6.9 mph - N/A   Overcast
1:31 PM 28.4 °F 23.3 °F 21.2 °F 74% 29.92 in 10.0 mi NNW 4.6 mph - N/A   Overcast
1:53 PM 28.9 °F 21.9 °F 21.9 °F 75% 29.96 in 10.0 mi NNW 6.9 mph - N/A   Overcast
2:53 PM 33.1 °F 28.7 °F 21.9 °F 64% 29.96 in 10.0 mi North 4.6 mph - N/A   Mostly Cloudy
3:53 PM 33.1 °F 26.1 °F 21.9 °F 64% 29.95 in 10.0 mi NW 8.1 mph - N/A   Mostly Cloudy
4:53 PM 34.0 °F 28.8 °F 23.0 °F 64% 29.96 in 10.0 mi NNW 5.8 mph - N/A   Mostly Cloudy
5:29 PM 33.8 °F 27.7 °F 21.2 °F 60% 29.94 in 10.0 mi WNW 6.9 mph - N/A   Mostly Cloudy
5:53 PM 35.1 °F 31.0 °F 21.0 °F 57% 29.97 in 10.0 mi NNW 4.6 mph - N/A   Mostly Cloudy
6:53 PM 34.0 °F 27.2 °F 21.0 °F 59% 29.98 in 10.0 mi WNW 8.1 mph - N/A   Mostly Cloudy
7:53 PM 33.1 °F 27.7 °F 24.1 °F 70% 29.99 in 10.0 mi West 5.8 mph - N/A   Mostly Cloudy
8:53 PM 30.9 °F 22.2 °F 18.0 °F 59% 30.02 in 10.0 mi WNW 10.4 mph - N/A   Scattered Clouds
9:53 PM 28.0 °F 18.1 °F 18.0 °F 66% 30.05 in 10.0 mi NW 11.5 mph - N/A   Clear
10:53 PM 27.0 °F 20.5 °F 18.0 °F 69% 30.09 in 10.0 mi WNW 5.8 mph - N/A   Clear
11:53 PM 27.0 °F 20.5 °F 19.0 °F 72% 30.09 in 10.0 mi WNW 5.8 mph - N/A   Partly Cloudy